Godofredo P. Ramos Airport


Codes: RPVE/MPH
Name: Godofredo P. Ramos Airport
City: Malay
Country: Philippines
Elevation: 7 ft.
Wikipedia:

Photos at Godofredo P. Ramos Airport


   Photos courtesy of SpottingLog. You can add your own sightings and photos by signing up for a free trial today.



No photos found.

Weather at Godofredo P. Ramos Airport


Time (UTC)DescriptionTempratureWindCloud coverageVisibilityPressureHumidity
16-Jun-2024 09:00Overcast Clouds30°C9 mph, SW100%10000m1009hPa73%
16-Jun-2024 12:00Overcast Clouds29°C7 mph, SW97%10000m1009hPa74%
16-Jun-2024 15:00Overcast Clouds29°C4 mph, SW95%10000m1010hPa76%
16-Jun-2024 18:00Moderate Rain28°C2 mph, SW94%10000m1009hPa79%
16-Jun-2024 21:00Light Rain28°C0 mph, N100%10000m1009hPa74%
17-Jun-2024 00:00Overcast Clouds29°C2 mph, E99%10000m1010hPa73%
17-Jun-2024 03:00Overcast Clouds29°C4 mph, E100%10000m1010hPa71%
17-Jun-2024 06:00Overcast Clouds29°C7 mph, E100%10000m1008hPa72%
17-Jun-2024 09:00Overcast Clouds30°C2 mph, S100%10000m1008hPa71%
17-Jun-2024 12:00Overcast Clouds29°C4 mph, SW100%10000m1010hPa76%
17-Jun-2024 15:00Light Rain28°C4 mph, SW100%3703m1010hPa79%
17-Jun-2024 18:00Moderate Rain28°C4 mph, S100%10000m1009hPa79%
17-Jun-2024 21:00Light Rain28°C2 mph, SW100%10000m1009hPa74%
18-Jun-2024 00:00Overcast Clouds29°C2 mph, SW100%10000m1010hPa73%
18-Jun-2024 03:00Overcast Clouds30°C2 mph, NE100%10000m1009hPa68%
18-Jun-2024 06:00Light Rain30°C2 mph, NW98%10000m1007hPa70%
18-Jun-2024 09:00Light Rain29°C4 mph, SW99%10000m1007hPa74%
18-Jun-2024 12:00Light Rain29°C4 mph, SW96%10000m1009hPa76%
18-Jun-2024 15:00Light Rain28°C4 mph, W100%10000m1010hPa77%
18-Jun-2024 18:00Light Rain28°C2 mph, SW100%10000m1008hPa74%
18-Jun-2024 21:00Overcast Clouds28°C2 mph, SE100%10000m1008hPa76%
19-Jun-2024 00:00Overcast Clouds28°C7 mph, SE100%10000m1009hPa79%
19-Jun-2024 03:00Light Rain29°C4 mph, E100%10000m1009hPa74%
19-Jun-2024 06:00Light Rain29°C7 mph, E100%10000m1007hPa75%
19-Jun-2024 09:00Overcast Clouds29°C9 mph, SE100%10000m1007hPa70%
19-Jun-2024 12:00Light Rain28°C7 mph, SE100%10000m1008hPa77%
19-Jun-2024 15:00Light Rain28°C2 mph, S100%10000m1009hPa79%
19-Jun-2024 18:00Moderate Rain28°C2 mph, E100%10000m1007hPa77%
19-Jun-2024 21:00Light Rain28°C2 mph, S100%10000m1007hPa76%
20-Jun-2024 00:00Light Rain27°C2 mph, SW100%10000m1009hPa78%
20-Jun-2024 03:00Light Rain28°C2 mph, W57%10000m1009hPa72%
20-Jun-2024 06:00Light Rain29°C4 mph, W56%10000m1007hPa72%
20-Jun-2024 09:00Light Rain29°C7 mph, SW71%10000m1007hPa71%
20-Jun-2024 12:00Light Rain28°C7 mph, SW87%10000m1009hPa78%
20-Jun-2024 15:00Moderate Rain26°C2 mph, SW98%10000m1010hPa86%
20-Jun-2024 18:00Moderate Rain28°C7 mph, SW100%9761m1008hPa79%
20-Jun-2024 21:00Moderate Rain28°C4 mph, SW100%10000m1008hPa76%
21-Jun-2024 00:00Light Rain28°C4 mph, S100%5050m1009hPa77%
21-Jun-2024 03:00Moderate Rain29°C9 mph, S99%5682m1009hPa74%
21-Jun-2024 06:00Light Rain29°C11 mph, SW85%10000m1007hPa73%